Location: Kalberh�ni
(46.4610°N, 7.2453°E)
Time: 01:56:05
(UTC+00:00)

Lacrosse 5 rocket - Pass Details

Date: 20 June 2021
Orbit: 459 x 634 km, 57.0° (Epoch: 25 July)

Event Time Altitude Azimuth Distance (km) Brightness Sun altitude
Rises 22:03:02 0° 270° (W) 2,518 5.0 -17.2°
Reaches altitude 10° 22:05:31 10° 285° (WNW) 1,625 4.2 -17.4°
Maximum altitude 22:08:27 23° 340° (NNW) 1,039 3.7 -17.5°
Drops below altitude 10° 22:11:22 10° 34° (NE) 1,610 4.2 -17.7°
Sets 22:13:49 0° 50° (NE) 2,489 5.0 -17.8°
